EDT,Max TemperatureF,Mean TemperatureF,Min TemperatureF,Max Dew PointF,MeanDew PointF,Min DewpointF,Max Humidity, Mean Humidity, Min Humidity, Max Sea Level PressureIn, Mean Sea Level PressureIn, Min Sea Level PressureIn, Max VisibilityMiles, Mean VisibilityMiles, Min VisibilityMiles, Max Wind SpeedMPH, Mean Wind SpeedMPH, Max Gust SpeedMPH,PrecipitationIn, CloudCover, Events, WindDirDegrees
2013-7-1,85,78,71,76,73,70,100,88,61,29.99,29.92,29.86,10,9,1,12,3,20,0.33,4,Rain,167
2013-7-2,82,78,73,75,73,72,99,89,70,30.19,30.10,29.99,10,10,1,14,8,20,0.11,4,Rain,174
2013-7-3,86,79,72,76,74,72,100,87,64,30.24,30.20,30.17,10,10,4,12,5,16,0.00,3,Rain,176
2013-7-4,91,82,74,75,72,68,100,76,48,30.27,30.23,30.17,10,10,7,16,6,18,0.00,2,,188
2013-7-5,91,82,72,74,72,69,98,74,50,30.25,30.20,30.14,10,10,10,,,,0.00,1,,-1
2013-7-6,91,82,74,74,72,69,97,72,48,30.20,30.15,30.09,10,10,10,,,,0.00,1,,-1
2013-7-7,91,82,73,73,72,67,97,74,52,30.13,30.08,30.01,10,10,10,,,,0.02,2,Rain,-1
2013-7-8,87,80,72,73,71,67,99,79,50,30.13,30.09,30.05,10,10,7,,,,0.01,2,Rain,-1
2013-7-9,89,80,71,76,72,69,99,77,51,30.12,30.07,30.01,10,10,7,,,,0.04,2,Rain,-1
2013-7-10,91,82,73,76,74,69,98,83,55,30.03,29.96,29.88,10,10,7,,,,0.08,3,Rain,-1
2013-7-11,85,78,72,75,72,68,99,84,58,29.93,29.90,29.86,10,10,3,,,,0.08,3,Rain,-1
2013-7-12,77,72,68,75,69,66,99,90,76,30.04,29.96,29.89,10,10,3,,,,0.16,7,Rain,-1
2013-7-13,85,76,68,78,71,68,100,86,65,30.26,30.15,30.04,10,10,1,,,,0.21,5,Rain,-1
2013-7-14,90,80,70,78,72,69,100,81,50,30.34,30.29,30.26,10,8,0,,,,0.00,3,Fog,-1
2013-7-15,94,82,71,76,72,68,100,73,44,30.31,30.26,30.20,10,10,7,6,3,,0.00,1,,294
2013-7-16,94,84,75,78,74,71,94,71,49,30.23,30.20,30.15,10,10,7,12,3,16,0.00,1,,352
2013-7-17,94,84,75,76,74,71,99,78,47,30.21,30.19,30.15,10,9,7,8,1,,0.00,1,,340
2013-7-18,95,88,82,79,76,73,85,64,50,30.12,30.05,30.01,10,10,7,,,,0.00,2,,-1
2013-7-19,96,86,76,77,75,72,96,68,47,30.03,29.97,29.89,10,10,5,,,,0.00,1,,-1
2013-7-20,94,86,78,76,74,69,84,70,50,29.92,29.88,29.82,10,10,10,,,,0.00,1,,-1
2013-7-21,93,82,72,74,71,68,99,78,46,29.95,29.92,29.89,10,10,2,,,,0.00,2,Rain,-1
2013-7-22,89,80,71,74,73,71,100,79,56,29.94,29.86,29.77,10,9,1,,,,0.00,2,,-1
2013-7-23,91,83,75,75,71,65,96,72,42,29.77,29.71,29.65,10,10,10,,,,0.00,1,,-1
2013-7-24,87,79,71,72,67,58,99,71,52,29.89,29.78,29.68,10,10,7,,,,0.00,2,,-1
2013-7-25,82,74,67,59,56,53,74,54,39,30.04,29.96,29.88,10,10,10,13,8,17,0.00,3,,352
2013-7-26,86,74,61,65,60,54,96,68,33,30.10,30.06,30.02,10,10,10,9,1,,0.00,2,,253
2013-7-27,86,75,64,73,68,63,98,83,53,30.06,30.00,29.93,10,10,4,15,3,20,0.01,3,Rain,165
2013-7-28,89,80,70,72,69,66,95,79,47,29.97,29.92,29.88,10,10,5,10,5,28,0.01,2,Rain,176
2013-7-29,84,74,65,69,60,52,100,64,35,30.16,30.08,29.98,10,10,5,,,,0.09,3,Rain,-1
2013-7-30,84,73,62,64,60,56,94,68,38,30.23,30.18,30.14,10,10,10,,,,0.00,3,,-1
2013-7-31,82,73,64,71,67,64,98,85,59,30.15,30.10,30.03,10,10,7,10,5,,0.00,3,Rain,173